Location: Arpaise
(41.0333°N, 14.7333°E)
Time: 01:42:07
(UTC+00:00)

Cosmos 1758 Rocket - Pass Details

Date: 05 July 2020
Orbit: 601 x 637 km, 82.5° (Epoch: 11 August)

Event Time Altitude Azimuth Distance (km) Brightness Sun altitude
Exits shadow 19:30:44 - 166° (SSE) 2,307 6.0 -9.1°
Reaches altitude 10° 19:31:29 10° 163° (SSE) 2,017 5.7 -9.2°
Maximum altitude 19:35:44 43° 92° (E) 896 4.0 -9.8°
Drops below altitude 10° 19:40:00 10° 21° (NNE) 2,032 6.5 -10.4°
Sets 19:42:19 0° 15° (NNE) 2,943 7.4 -10.7°
